TimeEDT,TemperatureF,Dew PointF,Humidity,Sea Level PressureIn,VisibilityMPH,Wind Direction,Wind SpeedMPH,Gust SpeedMPH,PrecipitationIn,Events,Conditions,WindDirDegrees,DateUTC
12:15 AM,37.4,32.0,81,30.38,10.0,ESE,9.2,-,N/A,,Clear,110,2013-04-22 04:15:00
12:35 AM,37.4,32.0,81,30.38,10.0,East,9.2,-,N/A,,Clear,100,2013-04-22 04:35:00
12:55 AM,37.4,32.0,81,30.37,10.0,ESE,9.2,-,N/A,,Clear,110,2013-04-22 04:55:00
1:15 AM,35.6,32.0,87,30.37,10.0,East,8.1,-,N/A,,Clear,100,2013-04-22 05:15:00
1:35 AM,35.6,32.0,87,30.37,10.0,East,8.1,-,N/A,,Clear,90,2013-04-22 05:35:00
1:55 AM,33.8,30.2,87,30.37,10.0,East,6.9,-,N/A,,Clear,100,2013-04-22 05:55:00
2:15 AM,33.8,32.0,93,30.36,10.0,East,6.9,-,N/A,,Clear,100,2013-04-22 06:15:00
2:35 AM,33.8,30.2,87,30.36,10.0,East,8.1,-,N/A,,Clear,100,2013-04-22 06:35:00
2:55 AM,33.8,32.0,93,30.35,10.0,East,6.9,-,N/A,,Clear,100,2013-04-22 06:55:00
3:15 AM,33.8,32.0,93,30.35,10.0,East,6.9,-,N/A,,Clear,90,2013-04-22 07:15:00
3:35 AM,33.8,32.0,93,30.34,10.0,East,6.9,-,N/A,,Clear,90,2013-04-22 07:35:00
3:55 AM,33.8,32.0,93,30.34,10.0,East,6.9,-,N/A,,Clear,90,2013-04-22 07:55:00
4:15 AM,33.8,32.0,93,30.33,10.0,East,6.9,-,N/A,,Clear,90,2013-04-22 08:15:00
4:35 AM,33.8,32.0,93,30.33,10.0,East,6.9,-,N/A,,Clear,90,2013-04-22 08:35:00
4:55 AM,33.8,32.0,93,30.33,10.0,East,5.8,-,N/A,,Clear,90,2013-04-22 08:55:00
5:15 AM,33.8,32.0,93,30.32,10.0,East,5.8,-,N/A,,Clear,80,2013-04-22 09:15:00
5:35 AM,33.8,32.0,93,30.32,10.0,East,6.9,-,N/A,,Clear,90,2013-04-22 09:35:00
5:55 AM,33.8,32.0,93,30.32,10.0,East,5.8,-,N/A,,Clear,80,2013-04-22 09:55:00
6:15 AM,33.8,32.0,93,30.32,10.0,East,5.8,-,N/A,,Clear,80,2013-04-22 10:15:00
6:35 AM,32.0,32.0,100,30.32,10.0,East,5.8,-,N/A,,Clear,90,2013-04-22 10:35:00
6:55 AM,32.0,32.0,100,30.33,7.0,East,6.9,-,N/A,,Clear,90,2013-04-22 10:55:00
7:15 AM,32.0,32.0,100,30.33,7.0,East,5.8,-,N/A,,Clear,90,2013-04-22 11:15:00
7:35 AM,32.0,32.0,100,30.33,7.0,East,5.8,-,N/A,,Clear,90,2013-04-22 11:35:00
7:55 AM,33.8,32.0,93,30.33,7.0,East,5.8,-,N/A,,Clear,90,2013-04-22 11:55:00
8:15 AM,35.6,33.8,93,30.33,10.0,East,6.9,-,N/A,,Clear,90,2013-04-22 12:15:00
8:35 AM,37.4,33.8,87,30.32,10.0,East,8.1,-,N/A,,Clear,100,2013-04-22 12:35:00
8:55 AM,41.0,33.8,76,30.32,10.0,ESE,8.1,-,N/A,,Clear,110,2013-04-22 12:55:00
9:15 AM,42.8,33.8,70,30.32,10.0,ESE,8.1,-,N/A,,Clear,110,2013-04-22 13:15:00
9:35 AM,42.8,35.6,76,30.32,10.0,ESE,6.9,-,N/A,,Clear,110,2013-04-22 13:35:00
9:55 AM,46.4,35.6,66,30.31,10.0,ESE,6.9,-,N/A,,Clear,110,2013-04-22 13:55:00
10:15 AM,48.2,35.6,62,30.31,10.0,ESE,5.8,-,N/A,,Clear,110,2013-04-22 14:15:00
10:35 AM,50.0,33.8,54,30.31,10.0,SE,6.9,-,N/A,,Clear,130,2013-04-22 14:35:00
10:55 AM,51.8,35.6,54,30.31,10.0,ESE,5.8,-,N/A,,Clear,120,2013-04-22 14:55:00
11:15 AM,53.6,35.6,51,30.31,10.0,ESE,6.9,-,N/A,,Clear,120,2013-04-22 15:15:00
11:35 AM,53.6,35.6,51,30.31,10.0,SE,6.9,-,N/A,,Clear,140,2013-04-22 15:35:00
11:55 AM,55.4,33.8,44,30.30,10.0,SE,8.1,-,N/A,,Clear,130,2013-04-22 15:55:00
12:15 PM,57.2,33.8,41,30.29,10.0,SE,6.9,-,N/A,,Clear,140,2013-04-22 16:15:00
12:35 PM,59.0,32.0,36,30.29,10.0,SE,8.1,-,N/A,,Clear,130,2013-04-22 16:35:00
12:55 PM,59.0,32.0,36,30.28,10.0,SE,9.2,-,N/A,,Clear,140,2013-04-22 16:55:00
1:15 PM,59.0,32.0,36,30.27,10.0,SE,6.9,-,N/A,,Clear,130,2013-04-22 17:15:00
1:35 PM,60.8,32.0,34,30.26,10.0,SE,10.4,-,N/A,,Clear,130,2013-04-22 17:35:00
1:55 PM,59.0,32.0,36,30.25,10.0,ESE,10.4,-,N/A,,Clear,120,2013-04-22 17:55:00
2:15 PM,60.8,32.0,34,30.25,10.0,ESE,9.2,-,N/A,,Clear,120,2013-04-22 18:15:00
2:35 PM,60.8,32.0,34,30.25,10.0,SSE,4.6,-,N/A,,Clear,160,2013-04-22 18:35:00
2:55 PM,60.8,32.0,34,30.24,10.0,SSE,8.1,-,N/A,,Clear,160,2013-04-22 18:55:00
3:15 PM,62.6,32.0,32,30.22,10.0,ESE,11.5,-,N/A,,Clear,120,2013-04-22 19:15:00
3:35 PM,62.6,32.0,32,-9999,-9999.0,North,-9999.0,-,N/A,,Clear,0,2013-04-22 19:35:00
3:55 PM,62.6,32.0,32,-9999,-9999.0,North,-9999.0,-,N/A,,Unknown,0,2013-04-22 19:55:00
4:15 PM,62.6,32.0,32,30.19,10.0,East,6.9,-,N/A,,Unknown,100,2013-04-22 20:15:00
4:35 PM,62.6,33.8,34,30.18,10.0,SE,5.8,-,N/A,,Clear,130,2013-04-22 20:35:00
4:55 PM,62.6,32.0,32,30.17,10.0,ESE,6.9,-,N/A,,Clear,120,2013-04-22 20:55:00
5:15 PM,64.4,33.8,32,30.17,10.0,SE,10.4,-,N/A,,Clear,130,2013-04-22 21:15:00
5:35 PM,64.4,33.8,32,30.16,10.0,SE,11.5,-,N/A,,Clear,130,2013-04-22 21:35:00
5:55 PM,64.4,33.8,32,30.14,10.0,SE,9.2,-,N/A,,Clear,140,2013-04-22 21:55:00
6:15 PM,62.6,33.8,34,30.13,10.0,SE,9.2,-,N/A,,Clear,130,2013-04-22 22:15:00
6:35 PM,62.6,33.8,34,30.12,10.0,SSE,11.5,-,N/A,,Clear,150,2013-04-22 22:35:00
6:55 PM,62.6,37.4,39,30.12,10.0,SE,8.1,-,N/A,,Clear,140,2013-04-22 22:55:00
7:15 PM,62.6,35.6,37,30.12,10.0,SE,8.1,-,N/A,,Clear,130,2013-04-22 23:15:00
7:35 PM,60.8,37.4,42,30.12,10.0,SE,8.1,-,N/A,,Clear,140,2013-04-22 23:35:00
7:55 PM,59.0,41.0,51,30.11,10.0,SE,6.9,-,N/A,,Clear,130,2013-04-22 23:55:00
8:15 PM,55.4,41.0,58,30.11,10.0,ESE,6.9,-,N/A,,Clear,120,2013-04-23 00:15:00
8:35 PM,50.0,41.0,71,30.10,10.0,ESE,8.1,-,N/A,,Clear,110,2013-04-23 00:35:00
8:55 PM,50.0,41.0,71,30.11,10.0,ESE,6.9,-,N/A,,Clear,120,2013-04-23 00:55:00
9:15 PM,50.0,41.0,71,30.12,10.0,ESE,5.8,-,N/A,,Clear,110,2013-04-23 01:15:00
9:35 PM,50.0,41.0,71,30.12,10.0,ESE,6.9,-,N/A,,Clear,110,2013-04-23 01:35:00
9:55 PM,50.0,41.0,71,30.12,10.0,ESE,6.9,-,N/A,,Clear,110,2013-04-23 01:55:00
10:15 PM,46.4,41.0,81,30.12,10.0,ESE,6.9,-,N/A,,Clear,120,2013-04-23 02:15:00
10:35 PM,48.2,41.0,76,30.12,10.0,ESE,6.9,-,N/A,,Clear,110,2013-04-23 02:35:00
10:55 PM,46.4,39.2,76,30.12,10.0,ESE,6.9,-,N/A,,Clear,110,2013-04-23 02:55:00
11:15 PM,48.2,39.2,71,30.11,10.0,ESE,6.9,-,N/A,,Clear,110,2013-04-23 03:15:00
11:35 PM,46.4,39.2,76,30.11,10.0,ESE,5.8,-,N/A,,Clear,110,2013-04-23 03:35:00
11:55 PM,46.4,39.2,76,30.11,10.0,ESE,5.8,-,N/A,,Clear,110,2013-04-23 03:55:00